TimeMST,TemperatureF,Dew PointF,Humidity,Sea Level PressureIn,VisibilityMPH,Wind Direction,Wind SpeedMPH,Gust SpeedMPH,PrecipitationIn,Events,Conditions,WindDirDegrees,DateUTC
12:56 AM,24.1,18.0,77,30.03,10.0,SSE,16.1,25.3,N/A,,Clear,160,2012-12-05 07:56:00
1:56 AM,25.0,19.0,78,30.00,10.0,South,20.7,-,N/A,,Clear,170,2012-12-05 08:56:00
2:56 AM,24.1,19.0,81,29.97,10.0,South,16.1,-,N/A,,Clear,170,2012-12-05 09:56:00
3:56 AM,24.1,19.0,81,29.93,10.0,SSE,16.1,-,N/A,,Clear,160,2012-12-05 10:56:00
4:56 AM,25.0,19.9,81,29.91,10.0,South,15.0,-,N/A,,Clear,180,2012-12-05 11:56:00
5:56 AM,26.1,19.9,78,29.88,10.0,South,15.0,-,N/A,,Clear,180,2012-12-05 12:56:00
7:56 AM,28.9,21.0,72,29.83,10.0,South,12.7,-,N/A,,Clear,170,2012-12-05 14:56:00
8:56 AM,36.0,21.9,57,29.79,10.0,SSE,10.4,-,N/A,,Clear,160,2012-12-05 15:56:00
9:56 AM,41.0,24.1,51,29.76,10.0,South,15.0,-,N/A,,Clear,180,2012-12-05 16:56:00
10:56 AM,46.9,26.1,44,29.72,10.0,SSW,16.1,-,N/A,,Clear,200,2012-12-05 17:56:00
11:56 AM,52.0,28.9,41,29.68,10.0,SSW,17.3,-,N/A,,Clear,210,2012-12-05 18:56:00
12:56 PM,52.0,30.0,43,29.66,10.0,SW,8.1,-,N/A,,Partly Cloudy,230,2012-12-05 19:56:00
1:56 PM,52.0,30.9,45,29.64,10.0,WSW,10.4,-,N/A,,Clear,240,2012-12-05 20:56:00
2:56 PM,50.0,30.9,48,29.65,10.0,WSW,9.2,-,N/A,,Clear,240,2012-12-05 21:56:00
3:56 PM,48.0,30.9,52,29.66,10.0,WSW,8.1,-,N/A,,Partly Cloudy,250,2012-12-05 22:56:00
4:56 PM,48.0,30.9,52,29.67,10.0,WSW,9.2,-,N/A,,Mostly Cloudy,250,2012-12-05 23:56:00
5:56 PM,44.1,30.0,58,29.69,10.0,West,8.1,-,N/A,,Clear,260,2012-12-06 00:56:00
6:56 PM,41.0,30.0,65,29.77,10.0,NW,9.2,-,N/A,,Clear,310,2012-12-06 01:56:00
7:56 PM,42.1,25.0,51,29.80,10.0,NW,11.5,-,N/A,,Partly Cloudy,320,2012-12-06 02:56:00
8:56 PM,43.0,23.0,45,29.82,10.0,NW,21.9,32.2,N/A,,Mostly Cloudy,310,2012-12-06 03:56:00
9:56 PM,35.1,21.9,59,29.84,10.0,WNW,11.5,-,N/A,,Partly Cloudy,290,2012-12-06 04:56:00
10:56 PM,34.0,24.1,67,29.85,10.0,West,15.0,-,N/A,,Clear,280,2012-12-06 05:56:00
11:56 PM,33.1,23.0,66,29.84,10.0,WNW,15.0,-,N/A,,Clear,290,2012-12-06 06:56:00